Back to Top

Language: 

My Weather Underground Personal Weather Station Historical Data with Graphs...

Delerius Weather Station Historical Data
Daily Summary for April 14, 2017 Units:  Metric    English   Both
« Previous Day
Next Day »
Daily Weekly Monthly Yearly Custom
  High: Low: Average:
Temperature: 14.1 °C 7.3 °C 9.9 °C
Dew Point: 9.6 °C 4.3 °C 6.8 °C
Humidity: 90 % 66 % 81 %
Wind Speed: 29 km/h 0 km/h 12.4 km/h
Wind Gust: 49.9 km/h - -
Wind:- - West
Pressure: 1016.1 hPa 1011.1 hPa -
Precipitation: 0.25 mm    
Historical Graphs
 
 
Tabular Data for April 14, 2017
Time Temperature Dew Point Pressure Wind Wind Speed Wind Gust Humidity Rainfall Rate (Hourly) solar Conditions
00:02 8.2 °C 4.8 °C 1016.1 hPa West 9.7 km/h 17.7 km/h 79 % 0 mm 0 W/m2
00:07 8.2 °C 4.8 °C 1016.1 hPa West 9.7 km/h 14.5 km/h 79 % 0 mm 0 W/m2
00:12 8.2 °C 4.8 °C 1016.1 hPa West 9.7 km/h 14.5 km/h 79 % 0 mm 0 W/m2
00:17 8.2 °C 4.8 °C 1016.1 hPa West 9.7 km/h 17.7 km/h 79 % 0 mm 0 W/m2
00:22 8.2 °C 4.8 °C 1016.1 hPa West 9.7 km/h 17.7 km/h 79 % 0 mm 0 W/m2
00:27 8.2 °C 4.8 °C 1016.1 hPa West 6.4 km/h 14.5 km/h 79 % 0 mm 0 W/m2
00:32 8.2 °C 4.8 °C 1016.1 hPa West 4.8 km/h 14.5 km/h 79 % 0 mm 0 W/m2
00:37 8.2 °C 4.9 °C 1016.1 hPa West 4.8 km/h 11.3 km/h 80 % 0 mm 0 W/m2
00:42 8.2 °C 4.9 °C 1016.1 hPa WNW 4.8 km/h 12.9 km/h 80 % 0 mm 0 W/m2
00:47 8.2 °C 4.8 °C 1016.1 hPa WNW 6.4 km/h 12.9 km/h 79 % 0 mm 0 W/m2
00:52 8.2 °C 4.9 °C 1016.1 hPa West 4.8 km/h 11.3 km/h 80 % 0 mm 0 W/m2
00:57 8.2 °C 4.9 °C 1016.1 hPa WNW 3.2 km/h 9.7 km/h 80 % 0 mm 0 W/m2
01:02 8.2 °C 4.8 °C 1015.8 hPa West 3.2 km/h 11.3 km/h 79 % 0 mm 0 W/m2
01:07 8.2 °C 4.8 °C 1015.8 hPa West 4.8 km/h 12.9 km/h 79 % 0 mm 0 W/m2
01:12 8.2 °C 4.8 °C 1015.8 hPa West 4.8 km/h 12.9 km/h 79 % 0 mm 0 W/m2
01:17 8.2 °C 4.9 °C 1015.8 hPa West 3.2 km/h 9.7 km/h 80 % 0 mm 0 W/m2
01:22 8.2 °C 4.9 °C 1015.8 hPa West 3.2 km/h 14.5 km/h 80 % 0 mm 0 W/m2
01:27 8.2 °C 4.8 °C 1015.5 hPa West 4.8 km/h 14.5 km/h 79 % 0 mm 0 W/m2
01:32 8.2 °C 4.8 °C 1015.5 hPa West 4.8 km/h 12.9 km/h 79 % 0 mm 0 W/m2
01:37 8.2 °C 4.9 °C 1015.5 hPa West 4.8 km/h 11.3 km/h 80 % 0 mm 0 W/m2
01:43 8.1 °C 4.8 °C 1015.5 hPa West 4.8 km/h 9.7 km/h 80 % 0 mm 0 W/m2
01:48 8.1 °C 4.8 °C 1015.5 hPa West 4.8 km/h 9.7 km/h 80 % 0 mm 0 W/m2
01:53 8.1 °C 4.8 °C 1015.5 hPa West 4.8 km/h 9.7 km/h 80 % 0 mm 0 W/m2
01:58 8.1 °C 4.8 °C 1015.5 hPa West 4.8 km/h 9.7 km/h 80 % 0 mm 0 W/m2
02:03 8.1 °C 4.8 °C 1015.5 hPa West 3.2 km/h 9.7 km/h 80 % 0 mm 0 W/m2
02:08 8 °C 4.8 °C 1015.1 hPa West 4.8 km/h 9.7 km/h 80 % 0 mm 0 W/m2
02:13 7.9 °C 4.7 °C 1015.1 hPa West 4.8 km/h 9.7 km/h 80 % 0 mm 0 W/m2
02:18 7.9 °C 4.5 °C 1015.1 hPa West 6.4 km/h 12.9 km/h 79 % 0 mm 0 W/m2
02:23 7.8 °C 4.4 °C 1015.1 hPa West 6.4 km/h 12.9 km/h 79 % 0 mm 0 W/m2
02:28 7.8 °C 4.4 °C 1015.1 hPa West 4.8 km/h 11.3 km/h 79 % 0 mm 0 W/m2
02:33 7.8 °C 4.6 °C 1015.1 hPa West 3.2 km/h 11.3 km/h 80 % 0 mm 0 W/m2
02:38 7.7 °C 4.4 °C 1014.8 hPa WNW 1.6 km/h 11.3 km/h 80 % 0 mm 0 W/m2
02:43 7.7 °C 4.4 °C 1014.8 hPa NW 1.6 km/h 8 km/h 80 % 0 mm 0 W/m2
02:48 7.7 °C 4.4 °C 1014.8 hPa WNW 3.2 km/h 11.3 km/h 80 % 0 mm 0 W/m2
02:53 7.7 °C 4.4 °C 1014.8 hPa West 3.2 km/h 12.9 km/h 80 % 0 mm 0 W/m2
02:58 7.7 °C 4.4 °C 1014.8 hPa West 1.6 km/h 12.9 km/h 80 % 0 mm 0 W/m2
03:03 7.7 °C 4.4 °C 1014.8 hPa WNW 3.2 km/h 9.7 km/h 80 % 0 mm 0 W/m2
03:08 7.8 °C 4.6 °C 1014.8 hPa WNW 6.4 km/h 11.3 km/h 80 % 0 mm 0 W/m2
03:13 7.8 °C 4.6 °C 1014.8 hPa West 8 km/h 16.1 km/h 80 % 0 mm 0 W/m2
03:18 7.8 °C 4.6 °C 1014.8 hPa West 9.7 km/h 20.9 km/h 80 % 0 mm 0 W/m2
03:23 7.8 °C 4.6 °C 1014.8 hPa West 11.3 km/h 20.9 km/h 80 % 0 mm 0 W/m2
03:25 7.8 °C 4.6 °C 1014.8 hPa WNW 11.3 km/h 20.9 km/h 80 % 0 mm 0 W/m2
03:30 7.7 °C 4.4 °C 1014.8 hPa WNW 12.9 km/h 22.5 km/h 80 % 0 mm 0 W/m2
03:35 7.7 °C 4.4 °C 1014.8 hPa WNW 12.9 km/h 22.5 km/h 80 % 0 mm 0 W/m2
03:40 7.6 °C 4.4 °C 1014.8 hPa WNW 12.9 km/h 22.5 km/h 80 % 0 mm 0 W/m2
03:46 7.6 °C 4.4 °C 1014.8 hPa WNW 11.3 km/h 22.5 km/h 80 % 0 mm 0 W/m2
03:51 7.5 °C 4.4 °C 1014.8 hPa WNW 9.7 km/h 17.7 km/h 81 % 0 mm 0 W/m2
03:56 7.4 °C 4.3 °C 1014.8 hPa WNW 9.7 km/h 16.1 km/h 81 % 0 mm 0 W/m2
03:58 7.4 °C 4.3 °C 1014.8 hPa WNW 9.7 km/h 16.1 km/h 81 % 0 mm 0 W/m2
04:03 7.4 °C 4.3 °C 1014.8 hPa West 6.4 km/h 16.1 km/h 81 % 0 mm 0 W/m2
04:08 7.4 °C 4.3 °C 1014.8 hPa West 3.2 km/h 8 km/h 81 % 0 mm 0 W/m2
04:13 7.3 °C 4.3 °C 1014.8 hPa WNW 1.6 km/h 8 km/h 81 % 0 mm 0 W/m2
04:18 7.3 °C 4.4 °C 1014.8 hPa WNW 1.6 km/h 8 km/h 82 % 0 mm 0 W/m2
04:23 7.3 °C 4.4 °C 1014.8 hPa WNW 1.6 km/h 8 km/h 82 % 0 mm 0 W/m2
04:28 7.3 °C 4.4 °C 1014.8 hPa West 3.2 km/h 8 km/h 82 % 0 mm 0 W/m2
04:33 7.3 °C 4.4 °C 1014.8 hPa West 1.6 km/h 8 km/h 82 % 0 mm 0 W/m2
04:38 7.3 °C 4.4 °C 1014.8 hPa Calm   3.2 km/h 82 % 0 mm 0 W/m2
04:43 7.3 °C 4.4 °C 1014.4 hPa Calm   1.6 km/h 82 % 0 mm 0 W/m2
04:48 7.3 °C 4.4 °C 1014.4 hPa Calm   3.2 km/h 82 % 0 mm 0 W/m2
04:53 7.3 °C 4.6 °C 1014.4 hPa West 1.6 km/h 8 km/h 83 % 0 mm 0 W/m2
04:58 7.4 °C 4.7 °C 1014.4 hPa West 3.2 km/h 9.7 km/h 83 % 0 mm 0 W/m2
05:03 7.4 °C 4.7 °C 1014.4 hPa WNW 3.2 km/h 9.7 km/h 83 % 0 mm 0 W/m2
05:08 7.4 °C 4.7 °C 1014.4 hPa West 1.6 km/h 8 km/h 83 % 0 mm 0 W/m2
05:13 7.5 °C 4.8 °C 1014.4 hPa West 3.2 km/h 8 km/h 83 % 0 mm 0 W/m2
05:18 7.5 °C 4.8 °C 1014.4 hPa West 1.6 km/h 8 km/h 83 % 0 mm 0 W/m2
05:23 7.5 °C 4.8 °C 1014.4 hPa West 1.6 km/h 6.4 km/h 83 % 0 mm 0 W/m2
05:28 7.5 °C 4.8 °C 1014.4 hPa West 1.6 km/h 11.3 km/h 83 % 0 mm 0 W/m2
05:33 7.5 °C 4.8 °C 1014.4 hPa WNW 4.8 km/h 11.3 km/h 83 % 0 mm 0 W/m2
05:38 7.6 °C 4.9 °C 1014.1 hPa WNW 6.4 km/h 11.3 km/h 83 % 0 mm 0 W/m2
05:43 7.6 °C 4.9 °C 1014.1 hPa WNW 4.8 km/h 11.3 km/h 83 % 0 mm 0 W/m2
05:44 7.6 °C 4.9 °C 1014.1 hPa WNW 4.8 km/h 11.3 km/h 83 % 0 mm 0 W/m2
05:49 7.6 °C 4.9 °C 1014.1 hPa WNW 4.8 km/h 11.3 km/h 83 % 0 mm 0 W/m2
05:54 7.5 °C 4.8 °C 1014.1 hPa WNW 4.8 km/h 11.3 km/h 83 % 0 mm 0 W/m2
05:59 7.4 °C 4.7 °C 1014.1 hPa WNW 4.8 km/h 11.3 km/h 83 % 0 mm 0 W/m2
06:04 7.4 °C 4.9 °C 1014.1 hPa WNW 4.8 km/h 11.3 km/h 84 % 0 mm 0 W/m2
06:09 7.3 °C 4.8 °C 1014.1 hPa WNW 6.4 km/h 11.3 km/h 84 % 0 mm 7 W/m2
06:14 7.3 °C 4.8 °C 1014.1 hPa NW 6.4 km/h 11.3 km/h 84 % 0 mm 7 W/m2
06:19 7.3 °C 4.9 °C 1014.4 hPa NW 3.2 km/h 9.7 km/h 85 % 0 mm 9 W/m2
06:24 7.3 °C 4.9 °C 1014.4 hPa NW 1.6 km/h 9.7 km/h 85 % 0 mm 12 W/m2
06:29 7.4 °C 5.1 °C 1014.4 hPa Calm   6.4 km/h 85 % 0 mm 12 W/m2
06:34 7.4 °C 5.1 °C 1014.4 hPa Calm     85 % 0 mm 9 W/m2
06:39 7.4 °C 5.1 °C 1014.4 hPa Calm     85 % 0 mm 11 W/m2
06:44 7.5 °C 5.2 °C 1014.4 hPa Calm     85 % 0 mm 5 W/m2
06:49 7.5 °C 5.2 °C 1014.4 hPa Calm     85 % 0 mm 5 W/m2
06:54 7.6 °C 5.2 °C 1014.4 hPa Calm     85 % 0 mm 7 W/m2
06:59 7.6 °C 5.2 °C 1014.4 hPa Calm   1.6 km/h 85 % 0 mm 5 W/m2
07:04 7.7 °C 5.2 °C 1014.4 hPa Calm   1.6 km/h 84 % 0 mm 11 W/m2
07:09 7.7 °C 5.2 °C 1014.4 hPa Calm   1.6 km/h 84 % 0 mm 16 W/m2
07:14 7.8 °C 5.4 °C 1014.4 hPa Calm     85 % 0 mm 16 W/m2
07:19 7.9 °C 5.6 °C 1014.4 hPa Calm   3.2 km/h 85 % 0 mm 21 W/m2
07:24 8 °C 5.6 °C 1014.4 hPa WNW 1.6 km/h 11.3 km/h 85 % 0 mm 25 W/m2
07:29 8.1 °C 5.7 °C 1014.4 hPa SW 6.4 km/h 14.5 km/h 85 % 0 mm 21 W/m2
07:34 8.2 °C 5.8 °C 1014.1 hPa SSW 8 km/h 14.5 km/h 85 % 0 mm 30 W/m2
07:39 8.2 °C 5.8 °C 1014.1 hPa SW 8 km/h 14.5 km/h 85 % 0 mm 35 W/m2
07:44 8.3 °C 5.9 °C 1014.1 hPa SW 9.7 km/h 17.7 km/h 85 % 0 mm 39 W/m2
07:49 8.3 °C 5.8 °C 1014.1 hPa SW 11.3 km/h 17.7 km/h 84 % 0 mm 23 W/m2
07:54 8.3 °C 5.8 °C 1014.1 hPa WSW 9.7 km/h 14.5 km/h 84 % 0 mm 54 W/m2
07:59 8.4 °C 6 °C 1014.4 hPa WSW 8 km/h 12.9 km/h 85 % 0 mm 77 W/m2
08:04 8.4 °C 5.8 °C 1014.1 hPa SW 8 km/h 14.5 km/h 84 % 0 mm 70 W/m2
08:09 8.5 °C 5.9 °C 1014.1 hPa SW 9.7 km/h 14.5 km/h 84 % 0 mm 58 W/m2
08:14 8.6 °C 6.1 °C 1014.1 hPa SW 8 km/h 14.5 km/h 84 % 0 mm 107 W/m2
08:20 8.7 °C 6.2 °C 1014.1 hPa SW 9.7 km/h 14.5 km/h 84 % 0 mm 69 W/m2
08:25 8.7 °C 6.2 °C 1014.1 hPa SW 8 km/h 12.9 km/h 84 % 0 mm 53 W/m2
08:30 8.8 °C 6.2 °C 1014.1 hPa SW 9.7 km/h 14.5 km/h 84 % 0 mm 46 W/m2
08:35 8.8 °C 6.2 °C 1014.1 hPa SW 11.3 km/h 17.7 km/h 84 % 0 mm 62 W/m2
08:40 8.9 °C 6.3 °C 1014.1 hPa SW 11.3 km/h 17.7 km/h 84 % 0 mm 83 W/m2
08:45 8.9 °C 6.3 °C 1014.1 hPa SW 11.3 km/h 17.7 km/h 84 % 0 mm 74 W/m2
08:50 8.9 °C 6.3 °C 1014.1 hPa SW 11.3 km/h 17.7 km/h 84 % 0 mm 105 W/m2
08:55 9.1 °C 6.6 °C 1013.8 hPa SW 9.7 km/h 16.1 km/h 84 % 0 mm 97 W/m2
09:00 9.1 °C 6.6 °C 1013.8 hPa SW 11.3 km/h 17.7 km/h 84 % 0 mm 121 W/m2
09:05 9.2 °C 6.6 °C 1013.8 hPa SW 11.3 km/h 17.7 km/h 84 % 0 mm 93 W/m2
09:10 9.3 °C 6.7 °C 1013.8 hPa SW 11.3 km/h 17.7 km/h 84 % 0 mm 127 W/m2
09:15 9.3 °C 6.9 °C 1013.8 hPa SW 11.3 km/h 17.7 km/h 85 % 0 mm 135 W/m2
09:20 9.4 °C 7.2 °C 1013.8 hPa SW 11.3 km/h 17.7 km/h 86 % 0 mm 125 W/m2
09:25 9.4 °C 7.2 °C 1013.8 hPa SW 9.7 km/h 16.1 km/h 86 % 0 mm 155 W/m2
09:30 9.5 °C 7.1 °C 1013.8 hPa SW 9.7 km/h 17.7 km/h 85 % 0 mm 174 W/m2
09:35 9.6 °C 7.2 °C 1013.8 hPa SW 11.3 km/h 19.3 km/h 85 % 0 mm 229 W/m2
09:40 9.7 °C 7.3 °C 1013.4 hPa SW 11.3 km/h 19.3 km/h 85 % 0 mm 250 W/m2
09:45 9.8 °C 7.4 °C 1013.4 hPa SW 12.9 km/h 19.3 km/h 85 % 0 mm 225 W/m2
09:46 9.8 °C 7.4 °C 1013.4 hPa SW 12.9 km/h 19.3 km/h 85 % 0 mm 220 W/m2
09:51 9.8 °C 7.4 °C 1013.4 hPa SSW 12.9 km/h 22.5 km/h 85 % 0 mm 214 W/m2
09:56 9.8 °C 7.4 °C 1013.4 hPa SW 14.5 km/h 22.5 km/h 85 % 0 mm 216 W/m2
10:01 9.9 °C 7.5 °C 1013.4 hPa SW 14.5 km/h 22.5 km/h 85 % 0 mm 220 W/m2
10:06 10.1 °C 7.7 °C 1013.4 hPa SW 12.9 km/h 20.9 km/h 85 % 0 mm 165 W/m2
10:11 10.2 °C 7.6 °C 1013.4 hPa SW 11.3 km/h 17.7 km/h 84 % 0 mm 155 W/m2
10:16 10.2 °C 7.6 °C 1013.4 hPa SW 11.3 km/h 17.7 km/h 84 % 0 mm 134 W/m2
10:21 10.2 °C 7.6 °C 1013.4 hPa SW 11.3 km/h 17.7 km/h 84 % 0 mm 142 W/m2
10:26 10.3 °C 7.7 °C 1013.4 hPa SW 12.9 km/h 19.3 km/h 84 % 0 mm 186 W/m2
10:31 10.4 °C 8 °C 1013.4 hPa SW 11.3 km/h 19.3 km/h 85 % 0 mm 236 W/m2
10:36 10.6 °C 8 °C 1013.1 hPa SW 11.3 km/h 20.9 km/h 84 % 0 mm 313 W/m2
10:41 10.8 °C 8.2 °C 1013.1 hPa WSW 12.9 km/h 20.9 km/h 84 % 0 mm 236 W/m2
10:46 10.9 °C 8.1 °C 1013.1 hPa WSW 14.5 km/h 22.5 km/h 83 % 0 mm 188 W/m2
10:51 10.9 °C 8.1 °C 1013.1 hPa SW 14.5 km/h 22.5 km/h 83 % 0 mm 120 W/m2
10:56 10.9 °C 8.3 °C 1013.1 hPa SW 12.9 km/h 22.5 km/h 84 % 0 mm 105 W/m2
11:01 10.9 °C 8.3 °C 1013.4 hPa WSW 12.9 km/h 20.9 km/h 84 % 0 mm 146 W/m2
11:06 10.9 °C 8.3 °C 1013.4 hPa WSW 12.9 km/h 20.9 km/h 84 % 0 mm 125 W/m2
11:11 11.1 °C 8.5 °C 1013.1 hPa WSW 12.9 km/h 20.9 km/h 84 % 0 mm 127 W/m2
11:16 11.2 °C 8.4 °C 1013.1 hPa West 12.9 km/h 24.1 km/h 83 % 0 mm 116 W/m2
11:21 11.3 °C 8.5 °C 1013.1 hPa West 14.5 km/h 24.1 km/h 83 % 0 mm 128 W/m2
11:26 11.4 °C 8.4 °C 1013.1 hPa WSW 14.5 km/h 25.7 km/h 82 % 0 mm 158 W/m2
11:31 11.4 °C 8.4 °C 1013.1 hPa WSW 17.7 km/h 32.2 km/h 82 % 0 mm 127 W/m2
11:36 11.4 °C 8.4 °C 1013.1 hPa West 16.1 km/h 32.2 km/h 82 % 0 mm 127 W/m2
11:41 11.6 °C 8.8 °C 1013.1 hPa West 14.5 km/h 22.5 km/h 83 % 0 mm 139 W/m2
11:46 11.6 °C 8.8 °C 1013.1 hPa West 12.9 km/h 22.5 km/h 83 % 0 mm 183 W/m2
11:51 11.7 °C 8.7 °C 1013.1 hPa West 14.5 km/h 30.6 km/h 82 % 0 mm 197 W/m2
11:56 11.7 °C 8.9 °C 1013.1 hPa West 16.1 km/h 30.6 km/h 83 % 0 mm 243 W/m2
12:01 11.8 °C 9 °C 1013.1 hPa West 14.5 km/h 25.7 km/h 83 % 0 mm 357 W/m2
12:07 12 °C 9.2 °C 1013.1 hPa West 14.5 km/h 22.5 km/h 83 % 0 mm 332 W/m2
12:12 12.2 °C 9.4 °C 1012.8 hPa West 14.5 km/h 25.7 km/h 83 % 0 mm 397 W/m2
12:17 12.4 °C 9.2 °C 1012.8 hPa West 17.7 km/h 33.8 km/h 81 % 0 mm 325 W/m2
12:20 12.5 °C 9.2 °C 1013.1 hPa West 22.5 km/h 35.4 km/h 80 % 0 mm 264 W/m2
12:25 12.6 °C 9.2 °C 1012.8 hPa West 20.9 km/h 35.4 km/h 80 % 0 mm 297 W/m2
12:30 12.7 °C 9.3 °C 1012.8 hPa West 17.7 km/h 30.6 km/h 80 % 0 mm 274 W/m2
12:35 12.8 °C 9.2 °C 1012.8 hPa West 17.7 km/h 37 km/h 79 % 0 mm 308 W/m2
12:40 12.8 °C 9.2 °C 1012.8 hPa West 19.3 km/h 37 km/h 79 % 0 mm 318 W/m2
12:45 12.8 °C 9.4 °C 1012.8 hPa West 19.3 km/h 37 km/h 80 % 0 mm 320 W/m2
12:51 13 °C 9.4 °C 1012.8 hPa West 19.3 km/h 35.4 km/h 79 % 0 mm 415 W/m2
12:55 13.2 °C 9.6 °C 1012.8 hPa West 20.9 km/h 40.2 km/h 79 % 0 mm 399 W/m2
13:01 13.2 °C 9.4 °C 1012.8 hPa West 20.9 km/h 40.2 km/h 78 % 0 mm 302 W/m2
13:06 13.1 °C 9.2 °C 1012.8 hPa West 22.5 km/h 37 km/h 77 % 0 mm 364 W/m2
13:11 13.1 °C 9.3 °C 1012.8 hPa West 22.5 km/h 37 km/h 78 % 0 mm 496 W/m2
13:16 13.2 °C 9.3 °C 1012.8 hPa West 22.5 km/h 38.6 km/h 77 % 0 mm 315 W/m2
13:21 13.1 °C 8.9 °C 1012.8 hPa West 24.1 km/h 38.6 km/h 76 % 0 mm 206 W/m2
13:26 13 °C 9.1 °C 1012.8 hPa West 22.5 km/h 38.6 km/h 77 % 0 mm 186 W/m2
13:31 12.9 °C 8.9 °C 1012.8 hPa West 22.5 km/h 38.6 km/h 77 % 0 mm 232 W/m2
13:36 12.9 °C 8.8 °C 1012.8 hPa West 24.1 km/h 38.6 km/h 76 % 0 mm 285 W/m2
13:41 12.9 °C 8.8 °C 1012.8 hPa West 24.1 km/h 41.8 km/h 76 % 0 mm 285 W/m2
13:46 12.9 °C 8.8 °C 1012.8 hPa West 22.5 km/h 41.8 km/h 76 % 0 mm 253 W/m2
13:51 12.9 °C 8.8 °C 1012.8 hPa West 22.5 km/h 37 km/h 76 % 0 mm 267 W/m2
13:56 12.8 °C 8.7 °C 1012.8 hPa West 25.7 km/h 40.2 km/h 76 % 0 mm 330 W/m2
14:01 12.9 °C 8.8 °C 1012.8 hPa West 25.7 km/h 41.8 km/h 76 % 0 mm 410 W/m2
14:06 13 °C 9.1 °C 1012.8 hPa West 24.1 km/h 41.8 km/h 77 % 0 mm 457 W/m2
14:11 13 °C 9.1 °C 1012.8 hPa West 24.1 km/h 40.2 km/h 77 % 0 mm 301 W/m2
14:15 13 °C 9.1 °C 1012.8 hPa West 22.5 km/h 40.2 km/h 77 % 0 mm 202 W/m2
14:20 12.9 °C 8.9 °C 1012.4 hPa West 19.3 km/h 32.2 km/h 77 % 0 mm 137 W/m2
14:25 12.9 °C 9.2 °C 1012.4 hPa West 17.7 km/h 32.2 km/h 78 % 0 mm 162 W/m2
14:30 12.8 °C 9.1 °C 1012.4 hPa West 17.7 km/h 33.8 km/h 78 % 0 mm 406 W/m2
14:35 12.8 °C 9.1 °C 1012.4 hPa West 19.3 km/h 33.8 km/h 78 % 0 mm 424 W/m2
14:40 13.2 °C 9.1 °C 1012.4 hPa West 17.7 km/h 33.8 km/h 76 % 0 mm 717 W/m2
14:45 13.6 °C 8.8 °C 1012.1 hPa West 20.9 km/h 38.6 km/h 73 % 0 mm 501 W/m2
14:50 13.8 °C 8.6 °C 1012.4 hPa West 24.1 km/h 38.6 km/h 71 % 0 mm 536 W/m2
14:55 13.9 °C 8.3 °C 1012.1 hPa West 25.7 km/h 43.5 km/h 69 % 0 mm 341 W/m2
15:00 13.8 °C 8.2 °C 1012.1 hPa West 27.4 km/h 46.7 km/h 69 % 0 mm 329 W/m2
15:05 13.7 °C 8.1 °C 1012.1 hPa West 25.7 km/h 46.7 km/h 69 % 0 mm 304 W/m2
15:10 13.8 °C 8.4 °C 1012.1 hPa West 24.1 km/h 43.5 km/h 70 % 0 mm 380 W/m2
15:15 13.8 °C 8.4 °C 1012.1 hPa West 20.9 km/h 37 km/h 70 % 0 mm 330 W/m2
15:20 13.9 °C 8.5 °C 1012.1 hPa West 19.3 km/h 37 km/h 70 % 0 mm 350 W/m2
15:25 14.1 °C 8.5 °C 1012.1 hPa West 19.3 km/h 32.2 km/h 69 % 0 mm 325 W/m2
15:30 13.9 °C 8.1 °C 1011.7 hPa West 22.5 km/h 40.2 km/h 68 % 0 mm 297 W/m2
15:35 13.7 °C 7.4 °C 1012.1 hPa West 25.7 km/h 49.9 km/h 66 % 0 mm 294 W/m2
15:40 13.6 °C 7.8 °C 1012.1 hPa West 27.4 km/h 49.9 km/h 68 % 0 mm 237 W/m2
15:45 13.4 °C 7.8 °C 1012.1 hPa West 24.1 km/h 43.5 km/h 69 % 0 mm 248 W/m2
15:50 13.4 °C 7.8 °C 1011.7 hPa West 22.5 km/h 40.2 km/h 69 % 0 mm 341 W/m2
15:55 13.5 °C 7.9 °C 1011.7 hPa West 20.9 km/h 40.2 km/h 69 % 0 mm 320 W/m2
16:00 13.6 °C 8 °C 1011.7 hPa West 19.3 km/h 33.8 km/h 69 % 0 mm 290 W/m2
16:05 13.4 °C 7.2 °C 1011.7 hPa West 25.7 km/h 45.1 km/h 66 % 0 mm 279 W/m2
16:10 13.3 °C 7.3 °C 1011.7 hPa West 29 km/h 45.1 km/h 67 % 0 mm 246 W/m2
16:15 13.3 °C 7.5 °C 1011.7 hPa WNW 27.4 km/h 40.2 km/h 68 % 0 mm 220 W/m2
16:20 13.2 °C 7.4 °C 1011.7 hPa WNW 25.7 km/h 40.2 km/h 68 % 0 mm 197 W/m2
16:25 13.1 °C 7.6 °C 1011.7 hPa WNW 25.7 km/h 43.5 km/h 69 % 0 mm 202 W/m2
16:30 13 °C 7.4 °C 1011.7 hPa West 27.4 km/h 43.5 km/h 69 % 0 mm 206 W/m2
16:35 12.9 °C 7.6 °C 1011.7 hPa West 25.7 km/h 41.8 km/h 70 % 0 mm 223 W/m2
16:40 12.9 °C 7.8 °C 1011.7 hPa West 24.1 km/h 41.8 km/h 71 % 0 mm 230 W/m2
16:45 13 °C 8.1 °C 1011.7 hPa West 20.9 km/h 41.8 km/h 72 % 0 mm 193 W/m2
16:50 13 °C 7.9 °C 1011.7 hPa West 19.3 km/h 41.8 km/h 71 % 0 mm 144 W/m2
16:56 12.9 °C 7.9 °C 1011.7 hPa WNW 20.9 km/h 41.8 km/h 72 % 0 mm 109 W/m2
17:01 12.8 °C 8.1 °C 1011.7 hPa WNW 20.9 km/h 37 km/h 73 % 0 mm 144 W/m2
17:06 12.7 °C 8.2 °C 1011.7 hPa WNW 19.3 km/h 33.8 km/h 74 % 0 mm 230 W/m2
17:11 12.6 °C 8.1 °C 1011.7 hPa WNW 17.7 km/h 33.8 km/h 74 % 0 mm 214 W/m2
17:16 12.6 °C 7.9 °C 1011.7 hPa WNW 19.3 km/h 32.2 km/h 73 % 0 mm 206 W/m2
17:21 12.5 °C 7.8 °C 1011.7 hPa WNW 20.9 km/h 32.2 km/h 73 % 0 mm 209 W/m2
17:26 12.5 °C 8 °C 1011.4 hPa WNW 17.7 km/h 29 km/h 74 % 0 mm 204 W/m2
17:31 12.5 °C 8.4 °C 1011.4 hPa WNW 16.1 km/h 29 km/h 76 % 0 mm 179 W/m2
17:36 12.5 °C 8.4 °C 1011.4 hPa West 16.1 km/h 29 km/h 76 % 0 mm 213 W/m2
17:41 12.4 °C 8.3 °C 1011.7 hPa WNW 17.7 km/h 33.8 km/h 76 % 0 mm 181 W/m2
17:46 12.3 °C 8.4 °C 1011.4 hPa West 17.7 km/h 33.8 km/h 77 % 0 mm 148 W/m2
17:51 12.3 °C 8.4 °C 1011.4 hPa WNW 17.7 km/h 30.6 km/h 77 % 0 mm 137 W/m2
17:56 12.2 °C 8.7 °C 1011.7 hPa WNW 16.1 km/h 29 km/h 79 % 0 mm 125 W/m2
18:01 12 °C 8.4 °C 1011.4 hPa WNW 17.7 km/h 30.6 km/h 79 % 0 mm 109 W/m2
18:06 11.9 °C 8.7 °C 1011.4 hPa WNW 16.1 km/h 30.6 km/h 81 % 0 mm 127 W/m2
18:11 11.8 °C 9 °C 1011.4 hPa WNW 11.3 km/h 24.1 km/h 83 % 0 mm 111 W/m2
18:16 11.6 °C 8.8 °C 1011.4 hPa WNW 11.3 km/h 19.3 km/h 83 % 0 mm 113 W/m2
18:21 11.6 °C 8.8 °C 1011.4 hPa West 11.3 km/h 25.7 km/h 83 % 0 mm 107 W/m2
18:26 11.6 °C 8.4 °C 1011.4 hPa West 12.9 km/h 25.7 km/h 81 % 0 mm 90 W/m2
18:31 11.6 °C 8.1 °C 1011.4 hPa West 16.1 km/h 30.6 km/h 79 % 0 mm 72 W/m2
18:36 11.6 °C 8.1 °C 1011.4 hPa West 19.3 km/h 35.4 km/h 79 % 0 mm 49 W/m2
18:41 11.5 °C 8.2 °C 1011.4 hPa West 17.7 km/h 35.4 km/h 80 % 0 mm 33 W/m2
18:46 11.4 °C 8.3 °C 1011.4 hPa West 16.1 km/h 29 km/h 81 % 0 mm 32 W/m2
18:51 11.2 °C 8.1 °C 1011.1 hPa West 14.5 km/h 24.1 km/h 81 % 0 mm 37 W/m2
18:56 11.1 °C 8.2 °C 1011.1 hPa West 14.5 km/h 25.7 km/h 82 % 0 mm 35 W/m2
19:01 10.9 °C 8.1 °C 1011.1 hPa West 14.5 km/h 29 km/h 83 % 0 mm 35 W/m2
19:06 10.9 °C 8.1 °C 1011.1 hPa West 14.5 km/h 29 km/h 83 % 0 mm 26 W/m2
19:11 10.8 °C 8 °C 1011.1 hPa West 14.5 km/h 25.7 km/h 83 % 0 mm 21 W/m2
19:16 10.8 °C 8 °C 1011.1 hPa West 14.5 km/h 25.7 km/h 83 % 0 mm 18 W/m2
19:21 10.8 °C 8 °C 1011.1 hPa West 12.9 km/h 29 km/h 83 % 0 mm 14 W/m2
19:26 10.7 °C 8.1 °C 1011.1 hPa West 14.5 km/h 29 km/h 84 % 0 mm 11 W/m2
19:31 10.6 °C 8 °C 1011.1 hPa West 14.5 km/h 25.7 km/h 84 % 0 mm 11 W/m2
19:36 10.5 °C 8.1 °C 1011.1 hPa West 16.1 km/h 25.7 km/h 85 % 0 mm 11 W/m2
19:41 10.4 °C 8 °C 1011.1 hPa West 14.5 km/h 25.7 km/h 85 % 0 mm 11 W/m2
19:46 10.4 °C 8.2 °C 1011.1 hPa West 11.3 km/h 25.7 km/h 86 % 0 mm 14 W/m2
19:51 10.3 °C 7.9 °C 1011.1 hPa West 11.3 km/h 20.9 km/h 85 % 0 mm 12 W/m2
19:56 10.3 °C 7.9 °C 1011.1 hPa West 14.5 km/h 29 km/h 85 % 0 mm 11 W/m2
20:01 10.3 °C 7.9 °C 1011.1 hPa West 14.5 km/h 29 km/h 85 % 0 mm 7 W/m2
20:06 10.3 °C 7.9 °C 1011.4 hPa West 12.9 km/h 30.6 km/h 85 % 0 mm 0 W/m2
20:11 10.3 °C 7.9 °C 1011.4 hPa West 14.5 km/h 30.6 km/h 85 % 0 mm 0 W/m2
20:17 10.3 °C 7.9 °C 1011.4 hPa West 14.5 km/h 25.7 km/h 85 % 0 mm 0 W/m2
20:22 10.3 °C 7.9 °C 1011.4 hPa West 12.9 km/h 22.5 km/h 85 % 0 mm 0 W/m2
20:27 10.3 °C 7.9 °C 1011.4 hPa WNW 14.5 km/h 32.2 km/h 85 % 0 mm 0 W/m2
20:32 10.3 °C 7.7 °C 1011.7 hPa WNW 17.7 km/h 33.8 km/h 84 % 0 mm 0 W/m2
20:37 10.3 °C 7.6 °C 1011.7 hPa WNW 17.7 km/h 33.8 km/h 83 % 0 mm 0 W/m2
20:42 10.2 °C 7.4 °C 1011.7 hPa WNW 14.5 km/h 32.2 km/h 83 % 0 mm 0 W/m2
20:47 10.1 °C 7.3 °C 1011.7 hPa WNW 16.1 km/h 30.6 km/h 83 % 0 mm 0 W/m2
20:52 10 °C 7.2 °C 1011.7 hPa WNW 19.3 km/h 30.6 km/h 83 % 0 mm 0 W/m2
20:57 9.9 °C 7.2 °C 1011.7 hPa WNW 16.1 km/h 30.6 km/h 83 % 0 mm 0 W/m2
21:02 9.8 °C 7.1 °C 1011.7 hPa WNW 16.1 km/h 30.6 km/h 83 % 0 mm 0 W/m2
21:07 9.7 °C 6.9 °C 1011.7 hPa WNW 17.7 km/h 33.8 km/h 83 % 0 mm 0 W/m2
21:12 9.6 °C 6.8 °C 1012.1 hPa WNW 19.3 km/h 33.8 km/h 83 % 0 mm 0 W/m2
21:17 9.6 °C 6.8 °C 1012.1 hPa WNW 17.7 km/h 30.6 km/h 83 % 0 mm 0 W/m2
21:23 9.4 °C 6.7 °C 1012.1 hPa WNW 16.1 km/h 30.6 km/h 83 % 0 mm 0 W/m2
21:28 9.4 °C 6.7 °C 1012.1 hPa WNW 14.5 km/h 24.1 km/h 83 % 0 mm 0 W/m2
21:33 9.3 °C 6.7 °C 1012.1 hPa WNW 14.5 km/h 25.7 km/h 84 % 0 mm 0 W/m2
21:38 9.2 °C 6.6 °C 1012.1 hPa WNW 14.5 km/h 30.6 km/h 84 % 0 mm 0 W/m2
21:43 9.2 °C 6.6 °C 1012.1 hPa WNW 12.9 km/h 30.6 km/h 84 % 0 mm 0 W/m2
21:48 9.2 °C 6.6 °C 1012.1 hPa WNW 11.3 km/h 19.3 km/h 84 % 0 mm 0 W/m2
21:53 9.2 °C 6.6 °C 1012.1 hPa WNW 11.3 km/h 17.7 km/h 84 % 0 mm 0 W/m2
21:58 9.2 °C 6.6 °C 1012.4 hPa WNW 11.3 km/h 20.9 km/h 84 % 0 mm 0 W/m2
22:03 9.2 °C 6.6 °C 1012.1 hPa WNW 11.3 km/h 20.9 km/h 84 % 0 mm 0 W/m2
22:08 9.1 °C 6.6 °C 1012.1 hPa West 11.3 km/h 19.3 km/h 84 % 0 mm 0 W/m2
22:13 9 °C 6.6 °C 1012.1 hPa West 12.9 km/h 24.1 km/h 85 % 0 mm 0 W/m2
22:18 9 °C 6.6 °C 1012.1 hPa WNW 12.9 km/h 24.1 km/h 85 % 0 mm 0 W/m2
22:23 9.1 °C 6.7 °C 1012.1 hPa WNW 12.9 km/h 22.5 km/h 85 % 0 mm 0 W/m2
22:28 9.1 °C 6.7 °C 1012.1 hPa WNW 12.9 km/h 22.5 km/h 85 % 0 mm 0 W/m2
22:33 9.1 °C 6.7 °C 1012.4 hPa WNW 12.9 km/h 25.7 km/h 85 % 0 mm 0 W/m2
22:38 9.1 °C 6.7 °C 1012.4 hPa WNW 16.1 km/h 32.2 km/h 85 % 0 mm 0 W/m2
22:43 9.1 °C 6.9 °C 1012.4 hPa WNW 16.1 km/h 32.2 km/h 86 % 0 mm 0 W/m2
22:48 9.1 °C 7.1 °C 1012.4 hPa WNW 12.9 km/h 25.7 km/h 87 % 0 mm 0 W/m2
22:53 9 °C 7.1 °C 1012.4 hPa WNW 11.3 km/h 22.5 km/h 88 % 0 mm 0 W/m2
22:58 8.9 °C 7.2 °C 1012.4 hPa WNW 11.3 km/h 22.5 km/h 89 % 0 mm 0 W/m2
23:03 8.8 °C 7.1 °C 1012.4 hPa WNW 11.3 km/h 22.5 km/h 89 % 0 mm 0 W/m2
23:08 8.7 °C 7 °C 1012.8 hPa WNW 12.9 km/h 24.1 km/h 89 % 0 mm 0 W/m2
23:13 8.7 °C 7.2 °C 1012.4 hPa WNW 12.9 km/h 24.1 km/h 90 % 0.25 mm 0 W/m2
23:18 8.6 °C 7.1 °C 1012.4 hPa WNW 12.9 km/h 20.9 km/h 90 % 0.25 mm 0 W/m2
23:23 8.5 °C 6.9 °C 1012.8 hPa WNW 11.3 km/h 20.9 km/h 90 % 0.25 mm 0 W/m2
23:28 8.5 °C 6.9 °C 1012.4 hPa WNW 11.3 km/h 20.9 km/h 90 % 0.25 mm 0 W/m2
23:33 8.4 °C 6.8 °C 1012.4 hPa WNW 11.3 km/h 19.3 km/h 90 % 0.25 mm 0 W/m2
23:38 8.4 °C 6.8 °C 1012.4 hPa WNW 9.7 km/h 19.3 km/h 90 % 0.25 mm 0 W/m2
23:43 8.3 °C 6.8 °C 1012.4 hPa WNW 11.3 km/h 17.7 km/h 90 % 0.25 mm 0 W/m2
23:48 8.2 °C 6.7 °C 1012.4 hPa WNW 11.3 km/h 17.7 km/h 90 % 0.25 mm 0 W/m2
23:53 8.2 °C 6.7 °C 1012.4 hPa WNW 9.7 km/h 17.7 km/h 90 % 0.25 mm 0 W/m2
23:58 8.1 °C 6.6 °C 1012.8 hPa WNW 9.7 km/h 17.7 km/h 90 % 0.25 mm 0 W/m2
Delerius-Weather
Compliments of Weather Underground - 2.25 mb

Data updates at regular intervals.